Location: Cerroniocc
(13.7547°S, 72.0222°W)
Time: 18:51:52
(UTC+00:00)

Cosmos 1939 Rocket - Pass Details

Date: 05 July 2020
Orbit: 532 x 584 km, 97.4° (Epoch: 11 August)

Event Time Altitude Azimuth Distance (km) Brightness Sun altitude
Exits shadow 23:13:14 - 142° (SE) 1,994 5.1 -9.8°
Reaches altitude 10° 23:13:28 10° 140° (SE) 1,913 5.0 -9.9°
Maximum altitude 23:17:02 28° 81° (E) 1,111 3.9 -10.7°
Drops below altitude 10° 23:20:33 10° 21° (NNE) 1,885 5.5 -11.5°
Sets 23:22:55 0° 10° (N) 2,771 6.6 -12.0°
